Weather History for KETH - November, 2013

Change the Weather History Date:

Sunday, November 3, 2013

  Actual Average (K8D3) Record (K8D3)
Temperature  
Mean Temperature 48 °F 38 °F  
Max Temperature 59 °F 47 °F 76 °F (1978)
Min Temperature 37 °F 28 °F 8 °F (1995)
Degree Days  
Heating Degree Days 17 27  
Month to date heating degree days 80  
Since 1 July heating degree days 907  
Cooling Degree Days 0 0  
Month to date cooling degree days 0  
Year to date cooling degree days 527  
Moisture  
Dew Point 36 °F    
Average Humidity 68    
Maximum Humidity 93    
Minimum Humidity 41    
Precipitation  
Precipitation 0.00 in 0.03 in 0.22 in (1983)
Month to date precipitation 0.09  
Year to date precipitation 21.45  
Snow  
Snow 0.00 in - - ()
Month to date snowfall  
Since 1 July snowfall  
Snow Depth -    
Sea Level Pressure  
Sea Level Pressure 29.78 in    
Wind  
Wind Speed 16 mph (SE)    
Max Wind Speed 32 mph    
Max Gust Speed 39 mph    
Visibility 10 miles    
Events      
T = Trace of Precipitation, MM = Missing Value Source: NWS Daily Summary

Daily Weather History Graph

Daily Weather History Graph

Search for Another Location

Airport or City:

Trip Planner

Search our weather history database for the weather conditions in past years. The results will help you decide how hot, cold, wet, or windy it might be!

Date:

Astronomy

Nov. 03, 2013 Rise Set
Actual Time 7:09 AM CST 5:09 PM CST
Civil Twilight 6:38 AM CST 5:40 PM CST
Nautical Twilight 6:02 AM CST 6:15 PM CST
Astronomical Twilight 5:28 AM CST 6:50 PM CST
Moon 7:15 AM CST (11/3) 5:23 PM CST (11/3)
Length of Visible Light 11h 02m
Length of Day
9h 59m
New Moon, 0% of the Moon is Illuminated
Nov 3
New Moon
Nov 9
First Quarter
Nov 17
Full
Nov 25
Last Quarter
Dec 2
New

Hourly Weather History & Observations

Time (CST) Temp. Windchill Dew Point Humidity Pressure Visibility Wind Dir Wind Speed Gust Speed Precip Events Conditions
12:15 AM 42.8 °F 38.0 °F 37.4 °F 81% 30.01 in 10.0 mi SE 8.1 mph - N/A   Clear
12:35 AM 41.0 °F 35.8 °F 37.4 °F 87% 30.00 in 10.0 mi ESE 8.1 mph - N/A   Clear
12:55 AM 41.0 °F 35.2 °F 37.4 °F 87% 29.99 in 10.0 mi ESE 9.2 mph - N/A   Clear
1:15 AM 41.0 °F 34.3 °F 37.4 °F 87% 29.98 in 10.0 mi SE 11.5 mph - N/A   Clear
1:35 AM 39.2 °F 32.0 °F 37.4 °F 93% 29.98 in 10.0 mi SE 11.5 mph - N/A   Clear
1:55 AM 39.2 °F 32.0 °F 37.4 °F 93% 29.98 in 10.0 mi SE 11.5 mph - N/A   Clear
1:14 AM 39.2 °F 32.0 °F 35.6 °F 87% 29.97 in 10.0 mi ESE 11.5 mph - N/A   Clear
1:34 AM 39.2 °F 32.0 °F 35.6 °F 87% 29.96 in 10.0 mi ESE 11.5 mph - N/A   Clear
1:55 AM 39.2 °F 31.6 °F 35.6 °F 87% 29.96 in 10.0 mi SE 12.7 mph - N/A   Clear
2:14 AM 39.2 °F 31.6 °F 35.6 °F 87% 29.96 in 10.0 mi ESE 12.7 mph - N/A   Clear
2:35 AM 37.4 °F 29.3 °F 35.6 °F 93% 29.94 in 10.0 mi ESE 12.7 mph - N/A   Clear
2:55 AM 37.4 °F 29.3 °F 35.6 °F 93% 29.94 in 10.0 mi ESE 12.7 mph - N/A   Clear
3:15 AM 37.4 °F 29.3 °F 35.6 °F 93% 29.93 in 10.0 mi ESE 12.7 mph - N/A   Clear
3:34 AM 37.4 °F 28.5 °F 35.6 °F 93% 29.91 in 10.0 mi ESE 15.0 mph - N/A   Clear
3:54 AM 37.4 °F 28.5 °F 35.6 °F 93% 29.90 in 10.0 mi ESE 15.0 mph - N/A   Clear
4:15 AM 37.4 °F 28.5 °F 35.6 °F 93% 29.90 in 10.0 mi ESE 15.0 mph - N/A   Clear
4:34 AM 37.4 °F 28.5 °F 33.8 °F 87% 29.89 in 10.0 mi ESE 15.0 mph - N/A   Clear
4:55 AM 37.4 °F 28.9 °F 33.8 °F 87% 29.87 in 10.0 mi ESE 13.8 mph - N/A   Clear
5:14 AM 37.4 °F 28.5 °F 33.8 °F 87% 29.87 in 10.0 mi ESE 15.0 mph - N/A   Clear
5:34 AM 37.4 °F 28.2 °F 33.8 °F 87% 29.86 in 10.0 mi ESE 16.1 mph - N/A   Clear
5:55 AM 37.4 °F 28.5 °F 33.8 °F 87% 29.86 in 10.0 mi ESE 15.0 mph - N/A   Clear
6:14 AM 37.4 °F 27.8 °F 33.8 °F 87% 29.85 in 10.0 mi ESE 17.3 mph - N/A   Clear
6:34 AM 39.2 °F 30.2 °F 33.8 °F 81% 29.84 in 10.0 mi ESE 17.3 mph - N/A   Clear
6:54 AM 39.2 °F 30.2 °F 33.8 °F 81% 29.84 in 10.0 mi ESE 17.3 mph 25.3 mph N/A   Clear
7:15 AM 37.4 °F 27.8 °F 33.8 °F 87% 29.83 in 10.0 mi ESE 17.3 mph - N/A   Clear
7:34 AM 39.2 °F 29.8 °F 33.8 °F 81% 29.83 in 10.0 mi ESE 18.4 mph - N/A   Clear
7:54 AM 39.2 °F 29.3 °F 33.8 °F 81% 29.83 in 10.0 mi ESE 20.7 mph 25.3 mph N/A   Clear
8:15 AM 39.2 °F 29.6 °F 35.6 °F 87% 29.82 in 10.0 mi ESE 19.6 mph 31.1 mph N/A   Clear
8:34 AM 41.0 °F 31.1 °F 35.6 °F 81% 29.81 in 10.0 mi ESE 23.0 mph 27.6 mph N/A   Clear
8:55 AM 41.0 °F 31.4 °F 35.6 °F 81% 29.80 in 10.0 mi ESE 21.9 mph 27.6 mph N/A   Clear
9:14 AM 42.8 °F 33.8 °F 35.6 °F 76% 29.79 in 10.0 mi ESE 21.9 mph 29.9 mph N/A   Clear
9:34 AM 44.6 °F 35.7 °F 37.4 °F 76% 29.78 in 10.0 mi ESE 24.2 mph 28.8 mph N/A   Clear
9:54 AM 46.4 °F 38.3 °F 37.4 °F 71% 29.76 in 10.0 mi ESE 23.0 mph 29.9 mph N/A   Clear
10:14 AM 48.2 °F - 37.4 °F 66% 29.75 in 10.0 mi ESE 23.0 mph 31.1 mph N/A   Clear
10:34 AM 50.0 °F - 37.4 °F 62% 29.74 in 10.0 mi SE 26.5 mph 36.8 mph N/A   Clear
10:54 AM 51.8 °F - 37.4 °F 58% 29.74 in 10.0 mi SE 32.2 mph 39.1 mph N/A   Clear
11:15 AM 51.8 °F - 37.4 °F 58% 29.73 in 10.0 mi SE 28.8 mph 38.0 mph N/A   Clear
11:35 AM 53.6 °F - 37.4 °F 54% 29.72 in 10.0 mi SE 27.6 mph 35.7 mph N/A   Clear
11:55 AM 53.6 °F - 37.4 °F 54% 29.71 in 10.0 mi SE 25.3 mph 34.5 mph N/A   Clear
12:14 PM 57.2 °F - 33.8 °F 41% 29.70 in 10.0 mi SSE 20.7 mph 39.1 mph N/A   Clear
12:34 PM 55.4 °F - 37.4 °F 51% 29.70 in 10.0 mi SE 26.5 mph 34.5 mph N/A   Clear
12:55 PM 55.4 °F - 37.4 °F 51% 29.70 in 10.0 mi SSE 17.3 mph 31.1 mph N/A   Clear
1:15 PM 57.2 °F - 33.8 °F 41% 29.68 in 10.0 mi SSE 27.6 mph 35.7 mph N/A   Clear
1:35 PM 57.2 °F - 35.6 °F 44% 29.67 in 10.0 mi SE 26.5 mph 31.1 mph N/A   Clear
1:55 PM 57.2 °F - 35.6 °F 44% 29.67 in 10.0 mi SSE 26.5 mph 36.8 mph N/A   Clear
2:14 PM 57.2 °F - 35.6 °F 44% 29.67 in 10.0 mi SSE 23.0 mph 33.4 mph N/A   Clear
2:34 PM 59.0 °F - 35.6 °F 42% 29.66 in 10.0 mi SE 31.1 mph 36.8 mph N/A   Clear
2:55 PM 57.2 °F - 35.6 °F 44% 29.67 in 10.0 mi SSE 24.2 mph 34.5 mph N/A   Clear
3:15 PM 57.2 °F - 35.6 °F 44% 29.67 in 10.0 mi SSE 24.2 mph 28.8 mph N/A   Clear
3:35 PM 57.2 °F - 35.6 °F 44% 29.67 in 10.0 mi SSE 19.6 mph 27.6 mph N/A   Clear
3:55 PM 57.2 °F - 37.4 °F 48% 29.68 in 10.0 mi SSE 20.7 mph 25.3 mph N/A   Clear
4:14 PM 57.2 °F - 37.4 °F 48% 29.67 in 10.0 mi SSE 18.4 mph 29.9 mph N/A   Clear
4:34 PM 55.4 °F - 37.4 °F 51% 29.67 in 10.0 mi SSE 13.8 mph 23.0 mph N/A   Clear
4:54 PM 55.4 °F - 37.4 °F 51% 29.68 in 10.0 mi SSE 16.1 mph 21.9 mph N/A   Clear
5:14 PM 55.4 °F - 37.4 °F 51% 29.68 in 10.0 mi SSE 12.7 mph 23.0 mph N/A   Clear
5:34 PM 55.4 °F - 37.4 °F 51% 29.68 in 10.0 mi SE 13.8 mph 20.7 mph N/A   Clear
5:54 PM 53.6 °F - 37.4 °F 54% 29.68 in 10.0 mi SE 13.8 mph - N/A   Clear
6:15 PM 53.6 °F - 39.2 °F 58% 29.69 in 10.0 mi SE 12.7 mph - N/A   Clear
6:35 PM 51.8 °F - 39.2 °F 62% 29.69 in 10.0 mi SE 11.5 mph - N/A   Clear
6:54 PM 51.8 °F - 37.4 °F 58% 29.69 in 10.0 mi SE 15.0 mph 21.9 mph N/A   Clear
7:15 PM 51.8 °F - 37.4 °F 58% 29.69 in 10.0 mi SE 16.1 mph 20.7 mph N/A   Clear
7:34 PM 51.8 °F - 37.4 °F 58% 29.69 in 10.0 mi SE 17.3 mph 24.2 mph N/A   Clear
7:55 PM 51.8 °F - 37.4 °F 58% 29.69 in 10.0 mi SE 18.4 mph - N/A   Clear
8:14 PM 51.8 °F - 37.4 °F 58% 29.69 in 10.0 mi SE 20.7 mph 26.5 mph N/A   Clear
8:34 PM 51.8 °F - 37.4 °F 58% 29.69 in 10.0 mi SE 18.4 mph 25.3 mph N/A   Clear
8:54 PM 51.8 °F - 37.4 °F 58% 29.68 in 10.0 mi SE 18.4 mph 26.5 mph N/A   Clear
9:15 PM 51.8 °F - 37.4 °F 58% 29.69 in 10.0 mi SE 20.7 mph 25.3 mph N/A   Scattered Clouds
9:35 PM 51.8 °F - 37.4 °F 58% 29.69 in 10.0 mi SE 18.4 mph 26.5 mph N/A   Clear
9:55 PM 50.0 °F - 37.4 °F 62% 29.69 in 10.0 mi SE 18.4 mph 24.2 mph N/A   Mostly Cloudy
10:14 PM 50.0 °F - 37.4 °F 62% 29.69 in 10.0 mi SE 21.9 mph 26.5 mph N/A   Mostly Cloudy
10:35 PM 50.0 °F - 37.4 °F 62% 29.69 in 10.0 mi SE 19.6 mph 26.5 mph N/A   Mostly Cloudy
10:54 PM 48.2 °F - 37.4 °F 66% 29.69 in 10.0 mi SE 18.4 mph 25.3 mph N/A   Scattered Clouds